Hourly Data Report for September 27, 2017

All times are specified in Local Standard Time (LST). Add 1 hour to adjust for Daylight Saving Time where and when it is observed.

ALGONQUIN PARK EAST GATE
ONTARIO

45°32'00.000" N
78°16'00.000" W
397.00 m
6080192
71581
TNK

Download Data

Hourly Data (September 2017)
Hourly Data Report for September 27, 2017
Temp Definition
°C
Dew Point Temp Definition
°C
Rel Hum Definition
%
Wind Dir Definition
10's deg

Wind Spd Definition
km/h
Visibility Definition
km
Stn Press Definition
kPa
Hmdx Definition


Wind Chill Definition


Weather Definition


TIME
00:00 16.4 14.8 90   0   96.59     LegendNANA
01:00 15.7 14.1 90   0   96.57     LegendNANA
02:00 15.0 13.6 91   0   96.52     LegendNANA
03:00 14.6 13.3 92   0   96.48     LegendNANA
04:00 14.5 13.2 92   0   96.44     LegendNANA
05:00 14.1 12.8 92   0   96.41     LegendNANA
06:00 13.9 12.6 92   0   96.39     LegendNANA
07:00 14.8 13.6 93   0   96.35     LegendNANA
08:00 17.7 15.7 88 0 1   96.30     LegendNANA
09:00 21.5 17.2 77 25 4   96.29 27   LegendNANA
10:00 21.8 17.0 74 26 7   96.30 27   LegendNANA
11:00 21.4 16.9 76 27 5   96.29 27   LegendNANA
12:00 19.7 17.4 86 27 6   96.28     LegendNANA
13:00 19.5 16.1 81 26 8   96.27     LegendNANA
14:00 19.7 14.5 72 28 9   96.21     LegendNANA
15:00 19.5 12.7 65 27 7   96.22     LegendNANA
16:00 18.6 9.9 57 26 9   96.23     LegendNANA
17:00 17.4 9.3 59 27 10   96.29     LegendNANA
18:00 16.1 8.5 61 29 7   96.36     LegendNANA
19:00 14.9 8.7 66 27 5   96.40     LegendNANA
20:00 13.8 8.3 69 27 7   96.44     LegendNANA
21:00 13.0 8.2 73 27 6   96.46     LegendNANA
22:00 12.7 8.3 75 28 4   96.48     LegendNANA
23:00 12.3 8.1 76 29 3   96.52     LegendNANA

Notes on Data Quality.

Legend

  • E = Estimated
  • M = Missing
  • NA = Not Available
  • ‡ = Partner data that is not subject to review by the National Climate Archives
Date modified: